date,time,water_lv
2016-09-01,00:00:00,9.71
2016-09-01,00:10:00,9.71
2016-09-01,00:20:00,9.7
2016-09-01,00:30:00,9.7
2016-09-01,00:40:00,9.7
2016-09-01,00:50:00,9.69
2016-09-01,01:00:00,9.71
2016-09-01,01:10:00,9.69
2016-09-01,01:20:00,9.7
2016-09-01,01:30:00,9.7
2016-09-01,01:40:00,9.7
2016-09-01,01:50:00,9.69
2016-09-01,02:00:00,9.69
2016-09-01,02:10:00,9.7
2016-09-01,02:20:00,9.7
2016-09-01,02:30:00,9.69
2016-09-01,02:40:00,9.69
2016-09-01,02:50:00,9.68
2016-09-01,03:00:00,9.7
2016-09-01,03:10:00,9.69
2016-09-01,03:20:00,9.69
2016-09-01,03:30:00,9.69
2016-09-01,03:40:00,9.67
2016-09-01,03:50:00,9.69
2016-09-01,04:00:00,9.68
2016-09-01,04:10:00,9.68
2016-09-01,04:20:00,9.7
2016-09-01,04:30:00,9.69
2016-09-01,04:40:00,9.67
2016-09-01,04:50:00,9.68
2016-09-01,05:00:00,9.69
2016-09-01,05:10:00,9.68
2016-09-01,05:20:00,9.67
2016-09-01,05:30:00,9.68
2016-09-01,05:40:00,9.69
2016-09-01,05:50:00,9.68
2016-09-01,06:00:00,9.69
2016-09-01,06:10:00,9.67
2016-09-01,06:20:00,9.68
2016-09-01,06:30:00,9.68
2016-09-01,06:40:00,9.69
2016-09-01,06:50:00,9.68
2016-09-01,07:00:00,9.68
2016-09-01,07:10:00,9.68
2016-09-01,07:20:00,9.68
2016-09-01,07:30:00,9.68
2016-09-01,07:40:00,9.67
2016-09-01,07:50:00,9.67
2016-09-01,08:00:00,9.68
2016-09-01,08:10:00,9.67
2016-09-01,08:20:00,9.67
2016-09-01,08:30:00,9.67
2016-09-01,08:40:00,9.67
2016-09-01,08:50:00,9.66
2016-09-01,09:00:00,9.68
2016-09-01,09:10:00,9.66
2016-09-01,09:20:00,9.66
2016-09-01,09:30:00,9.65
2016-09-01,09:40:00,9.66
2016-09-01,09:50:00,9.66
2016-09-01,10:00:00,9.65
2016-09-01,10:10:00,9.66
2016-09-01,10:20:00,9.65
2016-09-01,10:30:00,9.65
2016-09-01,10:40:00,9.65
2016-09-01,10:50:00,9.65
2016-09-01,11:00:00,9.65
2016-09-01,11:10:00,9.66
2016-09-01,11:20:00,9.65
2016-09-01,11:30:00,9.65
2016-09-01,11:40:00,9.65
2016-09-01,11:50:00,9.65
2016-09-01,12:00:00,9.65
2016-09-01,12:10:00,9.66
2016-09-01,12:20:00,9.64
2016-09-01,12:30:00,9.65
2016-09-01,12:40:00,9.65
2016-09-01,12:50:00,9.65
2016-09-01,13:00:00,9.64
2016-09-01,13:10:00,9.64
2016-09-01,13:20:00,9.64
2016-09-01,13:30:00,9.64
2016-09-01,13:40:00,9.64
2016-09-01,13:50:00,9.64
2016-09-01,14:00:00,9.63
2016-09-01,14:10:00,9.64
2016-09-01,14:20:00,9.63
2016-09-01,14:30:00,9.64
2016-09-01,14:40:00,9.63
2016-09-01,14:50:00,9.63
2016-09-01,15:00:00,9.63
2016-09-01,15:10:00,9.62
2016-09-01,15:20:00,9.63
2016-09-01,15:30:00,9.63
2016-09-01,15:40:00,9.62
2016-09-01,15:50:00,9.63
2016-09-01,16:00:00,9.62
2016-09-01,16:10:00,9.62
2016-09-01,16:20:00,9.62
2016-09-01,16:30:00,9.62
2016-09-01,16:40:00,9.62
2016-09-01,16:50:00,9.62
2016-09-01,17:00:00,9.62
2016-09-01,17:10:00,9.63
2016-09-01,17:20:00,9.63
2016-09-01,17:30:00,9.62
2016-09-01,17:40:00,9.62
2016-09-01,17:50:00,9.62
2016-09-01,18:00:00,-
2016-09-01,18:10:00,-
2016-09-01,18:20:00,9.62
2016-09-01,18:30:00,9.62
2016-09-01,18:40:00,9.61
2016-09-01,18:50:00,9.62
2016-09-01,19:00:00,9.62
2016-09-01,19:10:00,9.62
2016-09-01,19:20:00,9.62
2016-09-01,19:30:00,9.61
2016-09-01,19:40:00,9.61
2016-09-01,19:50:00,9.61
2016-09-01,20:00:00,9.61
2016-09-01,20:10:00,9.61
2016-09-01,20:20:00,9.62
2016-09-01,20:30:00,9.61
2016-09-01,20:40:00,9.61
2016-09-01,20:50:00,9.61
2016-09-01,21:00:00,9.61
2016-09-01,21:10:00,9.61
2016-09-01,21:20:00,9.61
2016-09-01,21:30:00,9.61
2016-09-01,21:40:00,9.6
2016-09-01,21:50:00,9.6
2016-09-01,22:00:00,9.6
2016-09-01,22:10:00,9.59
2016-09-01,22:20:00,9.61
2016-09-01,22:30:00,9.6
2016-09-01,22:40:00,9.6
2016-09-01,22:50:00,9.6
2016-09-01,23:00:00,9.61
2016-09-01,23:10:00,9.59
2016-09-01,23:20:00,9.6
2016-09-01,23:30:00,9.6
2016-09-01,23:40:00,9.6
2016-09-01,23:50:00,9.6
2016-09-02,00:00:00,9.6
2016-09-02,00:10:00,-
2016-09-02,00:20:00,9.6
2016-09-02,00:30:00,9.6
2016-09-02,00:40:00,9.6
2016-09-02,00:50:00,9.6
2016-09-02,01:00:00,9.6
2016-09-02,01:10:00,9.6
2016-09-02,01:20:00,9.61
2016-09-02,01:30:00,9.59
2016-09-02,01:40:00,9.6
2016-09-02,01:50:00,9.6
2016-09-02,02:00:00,9.6
2016-09-02,02:10:00,9.6
2016-09-02,02:20:00,9.6
2016-09-02,02:30:00,9.6
2016-09-02,02:40:00,9.6
2016-09-02,02:50:00,9.6
2016-09-02,03:00:00,9.6
2016-09-02,03:10:00,9.61
2016-09-02,03:20:00,9.61
2016-09-02,03:30:00,9.61
2016-09-02,03:40:00,9.61
2016-09-02,03:50:00,9.61
2016-09-02,04:00:00,9.61
2016-09-02,04:10:00,9.62
2016-09-02,04:20:00,9.62
2016-09-02,04:30:00,9.61
2016-09-02,04:40:00,9.62
2016-09-02,04:50:00,9.63
2016-09-02,05:00:00,9.62
2016-09-02,05:10:00,9.61
2016-09-02,05:20:00,9.62
2016-09-02,05:30:00,9.63
2016-09-02,05:40:00,9.63
2016-09-02,05:50:00,9.63
2016-09-02,06:00:00,9.64
2016-09-02,06:10:00,-
2016-09-02,06:20:00,9.64
2016-09-02,06:30:00,9.63
2016-09-02,06:40:00,9.63
2016-09-02,06:50:00,9.63
2016-09-02,07:00:00,9.64
2016-09-02,07:10:00,9.64
2016-09-02,07:20:00,9.64
2016-09-02,07:30:00,9.64
2016-09-02,07:40:00,9.63
2016-09-02,07:50:00,9.64
2016-09-02,08:00:00,9.63
2016-09-02,08:10:00,9.64
2016-09-02,08:20:00,9.64
2016-09-02,08:30:00,9.63
2016-09-02,08:40:00,9.63
2016-09-02,08:50:00,9.64
2016-09-02,09:00:00,9.63
2016-09-02,09:10:00,9.63
2016-09-02,09:20:00,9.63
2016-09-02,09:30:00,9.61
2016-09-02,09:40:00,9.62
2016-09-02,09:50:00,9.62
2016-09-02,10:00:00,9.62
2016-09-02,10:10:00,9.62
2016-09-02,10:20:00,9.62
2016-09-02,10:30:00,9.62
2016-09-02,10:40:00,9.61
2016-09-02,10:50:00,9.6
2016-09-02,11:00:00,9.61
2016-09-02,11:10:00,9.61
2016-09-02,11:20:00,9.61
2016-09-02,11:30:00,9.61
2016-09-02,11:40:00,9.61
2016-09-02,11:50:00,9.61
2016-09-02,12:00:00,9.61
2016-09-02,12:10:00,9.6
2016-09-02,12:20:00,9.61
2016-09-02,12:30:00,9.61
2016-09-02,12:40:00,9.61
2016-09-02,12:50:00,9.61
2016-09-02,13:00:00,9.62
2016-09-02,13:10:00,9.61
2016-09-02,13:20:00,9.61
2016-09-02,13:30:00,9.62
2016-09-02,13:40:00,9.61
2016-09-02,13:50:00,9.61
2016-09-02,14:00:00,9.61
2016-09-02,14:10:00,9.61
2016-09-02,14:20:00,9.61
2016-09-02,14:30:00,9.62
2016-09-02,14:40:00,9.61
2016-09-02,14:50:00,9.62
2016-09-02,15:00:00,9.61
2016-09-02,15:10:00,9.61
2016-09-02,15:20:00,9.61
2016-09-02,15:30:00,9.63
2016-09-02,15:40:00,9.63
2016-09-02,15:50:00,9.64
2016-09-02,16:00:00,9.66
2016-09-02,16:10:00,9.7
2016-09-02,16:20:00,9.73
2016-09-02,16:30:00,9.75
2016-09-02,16:40:00,9.77
2016-09-02,16:50:00,9.79
2016-09-02,17:00:00,9.8
2016-09-02,17:10:00,9.81
2016-09-02,17:20:00,9.81
2016-09-02,17:30:00,9.84
2016-09-02,17:40:00,9.82
2016-09-02,17:50:00,9.84
2016-09-02,18:00:00,9.83
2016-09-02,18:10:00,9.83
2016-09-02,18:20:00,9.84
2016-09-02,18:30:00,9.83
2016-09-02,18:40:00,9.82
2016-09-02,18:50:00,9.82
2016-09-02,19:00:00,9.82
2016-09-02,19:10:00,9.84
2016-09-02,19:20:00,9.81
2016-09-02,19:30:00,9.79
2016-09-02,19:40:00,9.8
2016-09-02,19:50:00,9.8
2016-09-02,20:00:00,9.77
2016-09-02,20:10:00,9.77
2016-09-02,20:20:00,9.77
2016-09-02,20:30:00,9.79
2016-09-02,20:40:00,9.79
2016-09-02,20:50:00,9.82
2016-09-02,21:00:00,9.85
2016-09-02,21:10:00,9.89
2016-09-02,21:20:00,9.89
2016-09-02,21:30:00,9.94
2016-09-02,21:40:00,9.94
2016-09-02,21:50:00,9.97
2016-09-02,22:00:00,9.98
2016-09-02,22:10:00,9.97
2016-09-02,22:20:00,9.99
2016-09-02,22:30:00,10.01
2016-09-02,22:40:00,10.02
2016-09-02,22:50:00,10.02
2016-09-02,23:00:00,10.02
2016-09-02,23:10:00,10.02
2016-09-02,23:20:00,10.03
2016-09-02,23:30:00,10.01
2016-09-02,23:40:00,10
2016-09-02,23:50:00,9.99
2016-09-03,00:00:00,9.99
2016-09-03,00:10:00,10.01
2016-09-03,00:20:00,9.99
2016-09-03,00:30:00,9.97
2016-09-03,00:40:00,9.97
2016-09-03,00:50:00,9.96
2016-09-03,01:00:00,9.96
2016-09-03,01:10:00,9.94
2016-09-03,01:20:00,9.92
2016-09-03,01:30:00,9.92
2016-09-03,01:40:00,9.89
2016-09-03,01:50:00,9.9
2016-09-03,02:00:00,9.86
2016-09-03,02:10:00,9.86
2016-09-03,02:20:00,9.86
2016-09-03,02:30:00,9.85
2016-09-03,02:40:00,9.83
2016-09-03,02:50:00,9.82
2016-09-03,03:00:00,9.82
2016-09-03,03:10:00,9.81
2016-09-03,03:20:00,9.81
2016-09-03,03:30:00,9.8
2016-09-03,03:40:00,9.79
2016-09-03,03:50:00,9.78
2016-09-03,04:00:00,9.77
2016-09-03,04:10:00,9.78
2016-09-03,04:20:00,9.77
2016-09-03,04:30:00,9.77
2016-09-03,04:40:00,9.76
2016-09-03,04:50:00,9.76
2016-09-03,05:00:00,9.75
2016-09-03,05:10:00,9.74
2016-09-03,05:20:00,9.74
2016-09-03,05:30:00,9.73
2016-09-03,05:40:00,9.72
2016-09-03,05:50:00,9.73
2016-09-03,06:00:00,9.73
2016-09-03,06:10:00,9.73
2016-09-03,06:20:00,9.71
2016-09-03,06:30:00,9.71
2016-09-03,06:40:00,9.72
2016-09-03,06:50:00,9.71
2016-09-03,07:00:00,9.71
2016-09-03,07:10:00,9.71
2016-09-03,07:20:00,9.71
2016-09-03,07:30:00,9.71
2016-09-03,07:40:00,9.71
2016-09-03,07:50:00,9.7
2016-09-03,08:00:00,9.69
2016-09-03,08:10:00,9.7
2016-09-03,08:20:00,9.68
2016-09-03,08:30:00,9.68
2016-09-03,08:40:00,9.69
2016-09-03,08:50:00,9.68
2016-09-03,09:00:00,9.68
2016-09-03,09:10:00,9.67
2016-09-03,09:20:00,9.67
2016-09-03,09:30:00,9.67
2016-09-03,09:40:00,9.66
2016-09-03,09:50:00,9.67
2016-09-03,10:00:00,9.67
2016-09-03,10:10:00,9.67
2016-09-03,10:20:00,9.65
2016-09-03,10:30:00,9.66
2016-09-03,10:40:00,9.67
2016-09-03,10:50:00,9.66
2016-09-03,11:00:00,9.66
2016-09-03,11:10:00,9.65
2016-09-03,11:20:00,9.65
2016-09-03,11:30:00,9.67
2016-09-03,11:40:00,9.66
2016-09-03,11:50:00,9.65
2016-09-03,12:00:00,9.66
2016-09-03,12:10:00,9.65
2016-09-03,12:20:00,9.65
2016-09-03,12:30:00,9.65
2016-09-03,12:40:00,9.64
2016-09-03,12:50:00,9.65
2016-09-03,13:00:00,9.65
2016-09-03,13:10:00,9.65
2016-09-03,13:20:00,9.64
2016-09-03,13:30:00,9.65
2016-09-03,13:40:00,9.64
2016-09-03,13:50:00,9.64
2016-09-03,14:00:00,9.65
2016-09-03,14:10:00,9.64
2016-09-03,14:20:00,9.63
2016-09-03,14:30:00,9.64
2016-09-03,14:40:00,9.64
2016-09-03,14:50:00,9.63
2016-09-03,15:00:00,9.63
2016-09-03,15:10:00,9.63
2016-09-03,15:20:00,9.63
2016-09-03,15:30:00,9.63
2016-09-03,15:40:00,9.63
2016-09-03,15:50:00,9.62
2016-09-03,16:00:00,9.63
2016-09-03,16:10:00,9.62
2016-09-03,16:20:00,9.62
2016-09-03,16:30:00,9.62
2016-09-03,16:40:00,9.62
2016-09-03,16:50:00,9.61
2016-09-03,17:00:00,9.62
2016-09-03,17:10:00,9.62
2016-09-03,17:20:00,9.62
2016-09-03,17:30:00,9.62
2016-09-03,17:40:00,9.62
2016-09-03,17:50:00,9.63
2016-09-03,18:00:00,9.62
2016-09-03,18:10:00,9.62
2016-09-03,18:20:00,9.61
2016-09-03,18:30:00,9.62
2016-09-03,18:40:00,9.62
2016-09-03,18:50:00,9.62
2016-09-03,19:00:00,9.62
2016-09-03,19:10:00,9.62
2016-09-03,19:20:00,9.61
2016-09-03,19:30:00,9.62
2016-09-03,19:40:00,9.62
2016-09-03,19:50:00,9.62
2016-09-03,20:00:00,9.62
2016-09-03,20:10:00,9.62
2016-09-03,20:20:00,9.62
2016-09-03,20:30:00,9.63
2016-09-03,20:40:00,9.64
2016-09-03,20:50:00,9.64
2016-09-03,21:00:00,9.66
2016-09-03,21:10:00,9.67
2016-09-03,21:20:00,9.7
2016-09-03,21:30:00,9.72
2016-09-03,21:40:00,9.75
2016-09-03,21:50:00,9.76
2016-09-03,22:00:00,9.79
2016-09-03,22:10:00,9.82
2016-09-03,22:20:00,9.82
2016-09-03,22:30:00,9.84
2016-09-03,22:40:00,9.84
2016-09-03,22:50:00,9.86
2016-09-03,23:00:00,9.85
2016-09-03,23:10:00,9.87
2016-09-03,23:20:00,9.87
2016-09-03,23:30:00,9.88
2016-09-03,23:40:00,9.87
2016-09-03,23:50:00,9.88
2016-09-04,00:00:00,9.87
2016-09-04,00:10:00,9.86
2016-09-04,00:20:00,9.85
2016-09-04,00:30:00,9.84
2016-09-04,00:40:00,9.84
2016-09-04,00:50:00,9.84
2016-09-04,01:00:00,9.83
2016-09-04,01:10:00,9.83
2016-09-04,01:20:00,9.82
2016-09-04,01:30:00,9.81
2016-09-04,01:40:00,9.8
2016-09-04,01:50:00,9.8
2016-09-04,02:00:00,9.79
2016-09-04,02:10:00,9.79
2016-09-04,02:20:00,9.77
2016-09-04,02:30:00,9.79
2016-09-04,02:40:00,9.76
2016-09-04,02:50:00,9.77
2016-09-04,03:00:00,9.76
2016-09-04,03:10:00,9.75
2016-09-04,03:20:00,9.74
2016-09-04,03:30:00,9.74
2016-09-04,03:40:00,9.72
2016-09-04,03:50:00,9.73
2016-09-04,04:00:00,9.72
2016-09-04,04:10:00,9.69
2016-09-04,04:20:00,9.71
2016-09-04,04:30:00,9.73
2016-09-04,04:40:00,9.71
2016-09-04,04:50:00,9.71
2016-09-04,05:00:00,9.71
2016-09-04,05:10:00,9.71
2016-09-04,05:20:00,9.71
2016-09-04,05:30:00,9.7
2016-09-04,05:40:00,9.69
2016-09-04,05:50:00,9.7
2016-09-04,06:00:00,9.7
2016-09-04,06:10:00,9.69
2016-09-04,06:20:00,9.68
2016-09-04,06:30:00,9.68
2016-09-04,06:40:00,9.68
2016-09-04,06:50:00,9.68
2016-09-04,07:00:00,9.68
2016-09-04,07:10:00,9.69
2016-09-04,07:20:00,9.68
2016-09-04,07:30:00,9.68
2016-09-04,07:40:00,9.67
2016-09-04,07:50:00,9.68
2016-09-04,08:00:00,9.67
2016-09-04,08:10:00,9.67
2016-09-04,08:20:00,9.68
2016-09-04,08:30:00,9.67
2016-09-04,08:40:00,9.66
2016-09-04,08:50:00,9.66
2016-09-04,09:00:00,9.66
2016-09-04,09:10:00,9.67
2016-09-04,09:20:00,9.67
2016-09-04,09:30:00,9.66
2016-09-04,09:40:00,9.67
2016-09-04,09:50:00,9.67
2016-09-04,10:00:00,9.67
2016-09-04,10:10:00,9.66
2016-09-04,10:20:00,9.67
2016-09-04,10:30:00,9.66
2016-09-04,10:40:00,9.67
2016-09-04,10:50:00,9.68
2016-09-04,11:00:00,9.68
2016-09-04,11:10:00,9.67
2016-09-04,11:20:00,9.68
2016-09-04,11:30:00,9.68
2016-09-04,11:40:00,9.67
2016-09-04,11:50:00,9.67
2016-09-04,12:00:00,9.68
2016-09-04,12:10:00,9.69
2016-09-04,12:20:00,9.68
2016-09-04,12:30:00,9.69
2016-09-04,12:40:00,9.7
2016-09-04,12:50:00,9.7
2016-09-04,13:00:00,9.7
2016-09-04,13:10:00,9.71
2016-09-04,13:20:00,9.72
2016-09-04,13:30:00,9.73
2016-09-04,13:40:00,9.74
2016-09-04,13:50:00,9.73
2016-09-04,14:00:00,9.74
2016-09-04,14:10:00,9.73
2016-09-04,14:20:00,9.75
2016-09-04,14:30:00,9.76
2016-09-04,14:40:00,9.75
2016-09-04,14:50:00,9.75
2016-09-04,15:00:00,9.77
2016-09-04,15:10:00,9.78
2016-09-04,15:20:00,9.79
2016-09-04,15:30:00,9.79
2016-09-04,15:40:00,9.79
2016-09-04,15:50:00,9.79
2016-09-04,16:00:00,9.8
2016-09-04,16:10:00,9.8
2016-09-04,16:20:00,9.79
2016-09-04,16:30:00,9.79
2016-09-04,16:40:00,9.79
2016-09-04,16:50:00,9.76
2016-09-04,17:00:00,9.76
2016-09-04,17:10:00,9.75
2016-09-04,17:20:00,9.76
2016-09-04,17:30:00,9.76
2016-09-04,17:40:00,9.77
2016-09-04,17:50:00,9.75
2016-09-04,18:00:00,9.74
2016-09-04,18:10:00,9.74
2016-09-04,18:20:00,9.73
2016-09-04,18:30:00,9.74
2016-09-04,18:40:00,9.72
2016-09-04,18:50:00,9.72
2016-09-04,19:00:00,9.7
2016-09-04,19:10:00,9.71
2016-09-04,19:20:00,9.72
2016-09-04,19:30:00,9.72
2016-09-04,19:40:00,9.71
2016-09-04,19:50:00,9.71
2016-09-04,20:00:00,9.71
2016-09-04,20:10:00,9.7
2016-09-04,20:20:00,9.7
2016-09-04,20:30:00,9.7
2016-09-04,20:40:00,9.7
2016-09-04,20:50:00,9.7
2016-09-04,21:00:00,9.69
2016-09-04,21:10:00,9.69
2016-09-04,21:20:00,9.68
2016-09-04,21:30:00,9.69
2016-09-04,21:40:00,9.69
2016-09-04,21:50:00,9.68
2016-09-04,22:00:00,9.67
2016-09-04,22:10:00,9.69
2016-09-04,22:20:00,9.67
2016-09-04,22:30:00,9.68
2016-09-04,22:40:00,9.67
2016-09-04,22:50:00,9.67
2016-09-04,23:00:00,9.66
2016-09-04,23:10:00,9.68
2016-09-04,23:20:00,9.66
2016-09-04,23:30:00,9.66
2016-09-04,23:40:00,9.66
2016-09-04,23:50:00,9.66
2016-09-05,00:00:00,9.65
2016-09-05,00:10:00,9.66
2016-09-05,00:20:00,9.66
2016-09-05,00:30:00,9.66
2016-09-05,00:40:00,9.65
2016-09-05,00:50:00,9.65
2016-09-05,01:00:00,9.65
2016-09-05,01:10:00,9.65
2016-09-05,01:20:00,9.65
2016-09-05,01:30:00,9.65
2016-09-05,01:40:00,9.65
2016-09-05,01:50:00,9.65
2016-09-05,02:00:00,9.65
2016-09-05,02:10:00,9.64
2016-09-05,02:20:00,9.64
2016-09-05,02:30:00,9.64
2016-09-05,02:40:00,9.64
2016-09-05,02:50:00,9.64
2016-09-05,03:00:00,9.64
2016-09-05,03:10:00,9.64
2016-09-05,03:20:00,9.64
2016-09-05,03:30:00,9.64
2016-09-05,03:40:00,9.64
2016-09-05,03:50:00,9.64
2016-09-05,04:00:00,9.64
2016-09-05,04:10:00,9.64
2016-09-05,04:20:00,9.63
2016-09-05,04:30:00,9.64
2016-09-05,04:40:00,9.64
2016-09-05,04:50:00,9.63
2016-09-05,05:00:00,9.63
2016-09-05,05:10:00,9.64
2016-09-05,05:20:00,9.63
2016-09-05,05:30:00,9.63
2016-09-05,05:40:00,9.63
2016-09-05,05:50:00,9.64
2016-09-05,06:00:00,9.65
2016-09-05,06:10:00,9.65
2016-09-05,06:20:00,9.63
2016-09-05,06:30:00,9.63
2016-09-05,06:40:00,9.63
2016-09-05,06:50:00,9.63
2016-09-05,07:00:00,9.62
2016-09-05,07:10:00,9.62
2016-09-05,07:20:00,9.63
2016-09-05,07:30:00,9.63
2016-09-05,07:40:00,9.63
2016-09-05,07:50:00,9.63
2016-09-05,08:00:00,9.63
2016-09-05,08:10:00,9.63
2016-09-05,08:20:00,9.62
2016-09-05,08:30:00,9.63
2016-09-05,08:40:00,9.62
2016-09-05,08:50:00,9.63
2016-09-05,09:00:00,9.62
2016-09-05,09:10:00,9.62
2016-09-05,09:20:00,9.62
2016-09-05,09:30:00,9.61
2016-09-05,09:40:00,9.62
2016-09-05,09:50:00,9.6
2016-09-05,10:00:00,9.62
2016-09-05,10:10:00,9.62
2016-09-05,10:20:00,9.61
2016-09-05,10:30:00,9.62
2016-09-05,10:40:00,9.62
2016-09-05,10:50:00,9.62
2016-09-05,11:00:00,9.61
2016-09-05,11:10:00,9.61
2016-09-05,11:20:00,9.61
2016-09-05,11:30:00,9.62
2016-09-05,11:40:00,9.61
2016-09-05,11:50:00,9.61
2016-09-05,12:00:00,9.61
2016-09-05,12:10:00,9.6
2016-09-05,12:20:00,9.61
2016-09-05,12:30:00,9.61
2016-09-05,12:40:00,9.61
2016-09-05,12:50:00,9.61
2016-09-05,13:00:00,9.62
2016-09-05,13:10:00,9.6
2016-09-05,13:20:00,9.62
2016-09-05,13:30:00,9.61
2016-09-05,13:40:00,9.61
2016-09-05,13:50:00,9.61
2016-09-05,14:00:00,9.62
2016-09-05,14:10:00,9.62
2016-09-05,14:20:00,9.62
2016-09-05,14:30:00,9.61
2016-09-05,14:40:00,9.61
2016-09-05,14:50:00,9.62
2016-09-05,15:00:00,9.62
2016-09-05,15:10:00,9.62
2016-09-05,15:20:00,9.61
2016-09-05,15:30:00,9.61
2016-09-05,15:40:00,9.62
2016-09-05,15:50:00,9.61
2016-09-05,16:00:00,9.61
2016-09-05,16:10:00,9.61
2016-09-05,16:20:00,9.61
2016-09-05,16:30:00,9.61
2016-09-05,16:40:00,9.61
2016-09-05,16:50:00,9.61
2016-09-05,17:00:00,9.61
2016-09-05,17:10:00,9.61
2016-09-05,17:20:00,9.61
2016-09-05,17:30:00,9.61
2016-09-05,17:40:00,9.62
2016-09-05,17:50:00,9.62
2016-09-05,18:00:00,9.61
2016-09-05,18:10:00,9.61
2016-09-05,18:20:00,9.61
2016-09-05,18:30:00,9.61
2016-09-05,18:40:00,9.62
2016-09-05,18:50:00,9.61
2016-09-05,19:00:00,9.61
2016-09-05,19:10:00,9.62
2016-09-05,19:20:00,9.63
2016-09-05,19:30:00,9.65
2016-09-05,19:40:00,9.67
2016-09-05,19:50:00,9.72
2016-09-05,20:00:00,9.79
2016-09-05,20:10:00,9.83
2016-09-05,20:20:00,9.89
2016-09-05,20:30:00,9.95
2016-09-05,20:40:00,9.99
2016-09-05,20:50:00,10.01
2016-09-05,21:00:00,10.03
2016-09-05,21:10:00,10.05
2016-09-05,21:20:00,10.05
2016-09-05,21:30:00,10.09
2016-09-05,21:40:00,10.1
2016-09-05,21:50:00,10.09
2016-09-05,22:00:00,10.11
2016-09-05,22:10:00,10.11
2016-09-05,22:20:00,10.12
2016-09-05,22:30:00,10.1
2016-09-05,22:40:00,10.12
2016-09-05,22:50:00,10.1
2016-09-05,23:00:00,10.08
2016-09-05,23:10:00,10.08
2016-09-05,23:20:00,10.06
2016-09-05,23:30:00,10.05
2016-09-05,23:40:00,10.05
2016-09-05,23:50:00,10.04
2016-09-06,00:00:00,10.02
2016-09-06,00:10:00,10.02
2016-09-06,00:20:00,10
2016-09-06,00:30:00,9.98
2016-09-06,00:40:00,9.99
2016-09-06,00:50:00,9.95
2016-09-06,01:00:00,9.94
2016-09-06,01:10:00,9.93
2016-09-06,01:20:00,9.93
2016-09-06,01:30:00,9.9
2016-09-06,01:40:00,9.89
2016-09-06,01:50:00,9.88
2016-09-06,02:00:00,9.88
2016-09-06,02:10:00,9.86
2016-09-06,02:20:00,9.86
2016-09-06,02:30:00,9.85
2016-09-06,02:40:00,9.82
2016-09-06,02:50:00,9.81
2016-09-06,03:00:00,9.81
2016-09-06,03:10:00,9.81
2016-09-06,03:20:00,9.82
2016-09-06,03:30:00,9.79
2016-09-06,03:40:00,9.79
2016-09-06,03:50:00,9.8
2016-09-06,04:00:00,9.79
2016-09-06,04:10:00,9.78
2016-09-06,04:20:00,9.77
2016-09-06,04:30:00,9.77
2016-09-06,04:40:00,9.77
2016-09-06,04:50:00,9.76
2016-09-06,05:00:00,9.77
2016-09-06,05:10:00,9.76
2016-09-06,05:20:00,9.76
2016-09-06,05:30:00,9.76
2016-09-06,05:40:00,9.76
2016-09-06,05:50:00,9.75
2016-09-06,06:00:00,9.75
2016-09-06,06:10:00,9.75
2016-09-06,06:20:00,9.76
2016-09-06,06:30:00,9.74
2016-09-06,06:40:00,9.74
2016-09-06,06:50:00,9.76
2016-09-06,07:00:00,9.77
2016-09-06,07:10:00,9.75
2016-09-06,07:20:00,9.77
2016-09-06,07:30:00,9.76
2016-09-06,07:40:00,9.77
2016-09-06,07:50:00,9.78
2016-09-06,08:00:00,9.78
2016-09-06,08:10:00,9.79
2016-09-06,08:20:00,9.79
2016-09-06,08:30:00,9.8
2016-09-06,08:40:00,9.81
2016-09-06,08:50:00,9.81
2016-09-06,09:00:00,9.83
2016-09-06,09:10:00,9.82
2016-09-06,09:20:00,9.83
2016-09-06,09:30:00,9.85
2016-09-06,09:40:00,9.86
2016-09-06,09:50:00,9.84
2016-09-06,10:00:00,9.84
2016-09-06,10:10:00,9.86
2016-09-06,10:20:00,9.87
2016-09-06,10:30:00,9.85
2016-09-06,10:40:00,9.84
2016-09-06,10:50:00,9.85
2016-09-06,11:00:00,9.86
2016-09-06,11:10:00,9.85
2016-09-06,11:20:00,9.84
2016-09-06,11:30:00,9.86
2016-09-06,11:40:00,9.84
2016-09-06,11:50:00,9.83
2016-09-06,12:00:00,9.83
2016-09-06,12:10:00,9.84
2016-09-06,12:20:00,9.85
2016-09-06,12:30:00,9.85
2016-09-06,12:40:00,9.85
2016-09-06,12:50:00,9.84
2016-09-06,13:00:00,9.84
2016-09-06,13:10:00,9.84
2016-09-06,13:20:00,9.83
2016-09-06,13:30:00,9.83
2016-09-06,13:40:00,9.84
2016-09-06,13:50:00,9.84
2016-09-06,14:00:00,9.84
2016-09-06,14:10:00,9.83
2016-09-06,14:20:00,9.83
2016-09-06,14:30:00,9.84
2016-09-06,14:40:00,9.84
2016-09-06,14:50:00,9.84
2016-09-06,15:00:00,9.85
2016-09-06,15:10:00,9.84
2016-09-06,15:20:00,9.86
2016-09-06,15:30:00,9.85
2016-09-06,15:40:00,9.86
2016-09-06,15:50:00,9.86
2016-09-06,16:00:00,9.87
2016-09-06,16:10:00,9.9
2016-09-06,16:20:00,9.91
2016-09-06,16:30:00,9.91
2016-09-06,16:40:00,9.91
2016-09-06,16:50:00,9.93
2016-09-06,17:00:00,9.93
2016-09-06,17:10:00,9.93
2016-09-06,17:20:00,9.95
2016-09-06,17:30:00,9.94
2016-09-06,17:40:00,9.95
2016-09-06,17:50:00,9.97
2016-09-06,18:00:00,9.97
2016-09-06,18:10:00,9.98
2016-09-06,18:20:00,9.97
2016-09-06,18:30:00,10.01
2016-09-06,18:40:00,9.99
2016-09-06,18:50:00,10.01
2016-09-06,19:00:00,10.02
2016-09-06,19:10:00,10.03
2016-09-06,19:20:00,10.04
2016-09-06,19:30:00,10.03
2016-09-06,19:40:00,10.04
2016-09-06,19:50:00,10.06
2016-09-06,20:00:00,10.08
2016-09-06,20:10:00,10.07
2016-09-06,20:20:00,10.1
2016-09-06,20:30:00,10.08
2016-09-06,20:40:00,10.11
2016-09-06,20:50:00,10.12
2016-09-06,21:00:00,10.14
2016-09-06,21:10:00,10.14
2016-09-06,21:20:00,10.17
2016-09-06,21:30:00,10.16
2016-09-06,21:40:00,10.18
2016-09-06,21:50:00,10.18
2016-09-06,22:00:00,10.21
2016-09-06,22:10:00,10.22
2016-09-06,22:20:00,10.24
2016-09-06,22:30:00,10.26
2016-09-06,22:40:00,10.28
2016-09-06,22:50:00,10.3
2016-09-06,23:00:00,10.31
2016-09-06,23:10:00,10.33
2016-09-06,23:20:00,10.34
2016-09-06,23:30:00,10.35
2016-09-06,23:40:00,10.37
2016-09-06,23:50:00,10.39
2016-09-07,00:00:00,10.41
2016-09-07,00:10:00,10.43
2016-09-07,00:20:00,10.44
2016-09-07,00:30:00,10.45
2016-09-07,00:40:00,10.47
2016-09-07,00:50:00,10.49
2016-09-07,01:00:00,10.51
2016-09-07,01:10:00,10.52
2016-09-07,01:20:00,10.53
2016-09-07,01:30:00,10.55
2016-09-07,01:40:00,10.56
2016-09-07,01:50:00,10.58
2016-09-07,02:00:00,10.59
2016-09-07,02:10:00,10.6
2016-09-07,02:20:00,10.62
2016-09-07,02:30:00,10.63
2016-09-07,02:40:00,10.63
2016-09-07,02:50:00,10.65
2016-09-07,03:00:00,10.66
2016-09-07,03:10:00,10.66
2016-09-07,03:20:00,10.67
2016-09-07,03:30:00,10.67
2016-09-07,03:40:00,10.67
2016-09-07,03:50:00,10.68
2016-09-07,04:00:00,10.69
2016-09-07,04:10:00,10.69
2016-09-07,04:20:00,10.69
2016-09-07,04:30:00,10.69
2016-09-07,04:40:00,10.69
2016-09-07,04:50:00,10.7
2016-09-07,05:00:00,10.69
2016-09-07,05:10:00,10.69
2016-09-07,05:20:00,10.69
2016-09-07,05:30:00,10.68
2016-09-07,05:40:00,10.68
2016-09-07,05:50:00,10.67
2016-09-07,06:00:00,10.67
2016-09-07,06:10:00,10.67
2016-09-07,06:20:00,10.66
2016-09-07,06:30:00,10.66
2016-09-07,06:40:00,10.65
2016-09-07,06:50:00,10.65
2016-09-07,07:00:00,10.64
2016-09-07,07:10:00,10.63
2016-09-07,07:20:00,10.63
2016-09-07,07:30:00,10.62
2016-09-07,07:40:00,10.6
2016-09-07,07:50:00,10.6
2016-09-07,08:00:00,10.59
2016-09-07,08:10:00,10.58
2016-09-07,08:20:00,10.57
2016-09-07,08:30:00,10.56
2016-09-07,08:40:00,10.54
2016-09-07,08:50:00,10.53
2016-09-07,09:00:00,10.51
2016-09-07,09:10:00,10.5
2016-09-07,09:20:00,10.49
2016-09-07,09:30:00,10.46
2016-09-07,09:40:00,10.45
2016-09-07,09:50:00,10.45
2016-09-07,10:00:00,10.43
2016-09-07,10:10:00,10.41
2016-09-07,10:20:00,10.41
2016-09-07,10:30:00,10.39
2016-09-07,10:40:00,10.38
2016-09-07,10:50:00,10.37
2016-09-07,11:00:00,10.35
2016-09-07,11:10:00,10.34
2016-09-07,11:20:00,10.33
2016-09-07,11:30:00,10.32
2016-09-07,11:40:00,10.31
2016-09-07,11:50:00,10.3
2016-09-07,12:00:00,10.28
2016-09-07,12:10:00,10.27
2016-09-07,12:20:00,10.26
2016-09-07,12:30:00,10.25
2016-09-07,12:40:00,10.24
2016-09-07,12:50:00,10.23
2016-09-07,13:00:00,10.21
2016-09-07,13:10:00,10.21
2016-09-07,13:20:00,10.2
2016-09-07,13:30:00,10.19
2016-09-07,13:40:00,10.18
2016-09-07,13:50:00,10.18
2016-09-07,14:00:00,10.16
2016-09-07,14:10:00,10.17
2016-09-07,14:20:00,10.16
2016-09-07,14:30:00,10.16
2016-09-07,14:40:00,10.14
2016-09-07,14:50:00,10.14
2016-09-07,15:00:00,10.13
2016-09-07,15:10:00,10.13
2016-09-07,15:20:00,10.12